This is the latest recevied weather packets stored in our database for station/object YC0TBU-4. If no packets are shown the sender has not sent any weather packets the latest 10 day(s).
| Time | Temp. | Humidity | Pressure | Rain* | Wind** | Luminosity | Snow |
|---|---|---|---|---|---|---|---|
| 1777964541 | 31.67° C | 36% | 1008.6 hPa | - | - | - | - |
| 1777963606 | 32.22° C | 35% | 1008.1 hPa | - | - | - | - |
| 1777962655 | 31.67° C | 37% | 1009.3 hPa | - | - | - | - |
| 1777961720 | 31.11° C | 37% | 1009 hPa | - | - | - | - |
| 1777960785 | 30.56° C | 39% | 1009.2 hPa | - | - | - | - |
| 1777959850 | 30.56° C | 39% | 1008.8 hPa | - | - | - | - |
| 1777958915 | 31.11° C | 39% | 1009.7 hPa | - | - | - | - |
| 1777957980 | 31.67° C | 38% | 1010.3 hPa | - | - | - | - |
| 1777957045 | 31.11° C | 39% | 1010.5 hPa | - | - | - | - |
| 1777956110 | 30.56° C | 40% | 1011.3 hPa | - | - | - | - |
| 1777955175 | 30.56° C | 40% | 1012.2 hPa | - | - | - | - |
| 1777954240 | 30° C | 40% | 1012.9 hPa | - | - | - | - |
| 1777953305 | 30° C | 40% | 1012.3 hPa | - | - | - | - |
| 1777952370 | 31.67° C | 38% | 1012.4 hPa | - | - | - | - |
| 1777951435 | 31.67° C | 37% | 1012.7 hPa | - | - | - | - |
| 1777950500 | 31.67° C | 37% | 1012.5 hPa | - | - | - | - |
| 1777949565 | 31.11° C | 38% | 1012.5 hPa | - | - | - | - |
| 1777948630 | 31.11° C | 38% | 1012.6 hPa | - | - | - | - |
| 1777947695 | 30.56° C | 39% | 1012.6 hPa | - | - | - | - |
| 1777946760 | 30° C | 40% | 1012.5 hPa | - | - | - | - |
| 1777945825 | 30° C | 40% | 1012.3 hPa | - | - | - | - |
| 1777944890 | 30° C | 40% | 1012.3 hPa | - | - | - | - |
| 1777943955 | 29.44° C | 40% | 1011.6 hPa | - | - | - | - |
| 1777943020 | 29.44° C | 41% | 1011.5 hPa | - | - | - | - |
| 1777942085 | 29.44° C | 40% | 1011.1 hPa | - | - | - | - |
* Rain since midnight (hover to see other rain measurements)
** Current wind speed in m/s (hover to see current wind gust speed)